ISS (ZARYA)

Last updated on Wed Jul 02 2025 00:02:10 GMT+0000 (Coordinated Universal Time)

1 25544U 98067A 25182.65803609 .00005112 00000+0 96418-4 0 9995 2 25544 51.6360 235.3486 0002162 320.4564 147.8083 15.50319280517401
UTC large
Height (km)
Speed (km/s)
/
Latitude / Longitude
Inclination (degrees)
Orbital Period (minutes)
Azimuth
Elevation
Range (km)
Doppler Factor

Next 0 passes for location: London (51.5072 / 0.1276)

Sorry there are no passes over London.